Location: Newark
(12.4436°N, 0.6167°W)
Time: 01:07:07
(UTC+00:00)

deb Explorer IX - Pass Details

Date: 08 December 2019
Orbit: 548 x 1101 km, 38.8° (Epoch: 17 January)

Event Time Altitude Azimuth Distance (km) Brightness Sun altitude
Rises 00:33:47 0° 308° (NW) 3,900 - -76.1°
Reaches altitude 10° 00:36:37 10° 309° (NW) 2,921 - -75.6°
Maximum altitude 00:43:50 88° 223° (SW) 1,024 - -74.4°
Drops below altitude 10° 00:50:18 10° 131° (SE) 2,632 - -73.2°
Sets 00:52:44 0° 131° (SE) 3,495 - -72.7°
